Terminal Aerodrome Forecast
Issued by NWS Lake Charles, LA

Home | Current Version | Previous Version | Text Only | Print | Product List | Glossary On
Versions: 1 2 3 4 5 6 7 8 9 10 11 12 13 14 15 16 17 18 19 20 21 22 23 24 25 26 27 28 29 30
000
FTUS44 KLCH 271415 AAA
TAFBPT
TAF AMD
KBPT 271415Z 2714/2812 03015KT P6SM VCSH BKN050
     FM271600 08012KT P6SM BKN050
     FM272000 12010KT P6SM VCSH BKN025=

USA.gov is the U.S. government's official web portal to all federal, state and local government web resources and services.